Simultaneous Nadir Overpasses (SNOs) Predictions

Prediction of SNOs between METOP-B and TERRA Satellite Orbit:

Table of predicted SNOs for the next 14.0 days since TLE Epoch: 11/26/2016
Index Date (METOP-B) Time (METOP-B) Lat,Lon (METOP-B) SZA (METOP-B ) Date (TERRA) Time (TERRA) Lat,Lon (TERRA) SZA (TERRA ) Distance(km) Time Diff (sec)
1 11/27/2016 18:43:44 -81.29, 125.79 74.50 11/27/2016 18:44:06 -81.28, 125.87 74.49 1.54 22
2 11/27/2016 19:34:24 81.29, -66.57 105.55 11/27/2016 19:33:32 81.29, -66.40 105.54 2.83 52
3 11/30/2016 14:18:05 -81.29,-167.24 74.00 11/30/2016 14:18:20 -81.30,-167.41 74.01 2.87 15
4 11/30/2016 15:08:45 81.30, 0.36 106.05 11/30/2016 15:07:46 81.30, 0.30 106.01 1.08 59
5 12/03/2016 09:52:29 -81.29,-101.07 73.64 12/03/2016 09:52:36 -81.29,-101.10 73.65 0.55 7
6 12
